loading
|

THOR ABLESTAR DEB, 538

Orbit data source: Space-Track

THOR ABLESTAR DEB, 538 is space debris in LEO originally from a launch on Thu, 29 Jun 1961 UTC launched from the Air Force Eastern Test Range (AFETR). Debris objects in space refer to the collection of defunct objects orbiting the Earth. Examples of debris include non-operational satellites, rocket bodies, and fragments generated from explosions, collisions, or faulty payload assembly.

Loading next visibility...
Loading greatness...
THOR ABLESTAR DEB details
Identifier
538, 1961-015FX
Orbit
LEO
Last TLE update10 hours ago
Origin
Flag of USUSAF SSD (US)
ManufacturerUnknown
Mission statusUnknown
MissionUnknown
Bus & MotorUnknown
MassUnknown
Launch date (UTC)
1961-06-29 (63 years ago)
Launch vehicleUnknown
Launch site
Air Force Eastern Test Range (AFETR)
Object type
Payload
Rocket body
Debris
Radar Cross SectionSmall (<0.1 m²)

Expand to show TLE details & history

TLE from 10 hours ago
0 THOR ABLESTAR DEB
1 00538U 61015FX  24258.89876819  .00015073  00000-0  34998-2 0  9997
2 00538  67.8077 203.8691 0011933 243.7777 116.2116 14.55036067270055
Epoch: 2024-09-14T21:34Z
Definitive object data (Epoch: 2024-09-14T21:34:13.571Z)
Latitude-0.0001°
Longitude-114.03736°
Altitude715.209 km
Speed7.496 km/s
True Right ascension13h 35m 28s
True Declination0° 00' 00"
Sunlit
Object was in daylight at TLE epoch
Predictive object data (real-time)
Latitude65.34687°
Longitude-53.01136°
Altitude727.87 km
Speed7.493 km/s
Apparent Right ascension14h 19m 17s
Apparent Declination20° 44' 35"
Sunlit
Object is in daylight
Predictive observer data (real-time)
Local Sidereal Time00:28:24
Azimuth331.55° NNW
Elevation-24.059°
Doppler factor1
Orbital elements
Apogee715.93 km
Perigee699.02 km
Semi-major axis7,085.612 km
Eccentricity0.0011933
Inclination67.8077°
RAAN203.8691°
Arg. of periapsis243.7777°
True anomaly116.3342°
Mean anomaly116.2116°
Eccentric anomaly116.27291°
Mean motion3.63896 °/min
BSTAR0.0034998
Period98.93 mins
No data available

THOR ABLESTAR DEB Visibility forecast

Observer location: 39.9160978°, -105.1181434

THOR ABLESTAR DEB is not visible in the next 10 days
Span
Click to sort rows by Start time (UTC) header in descending order
Start Az.
Max El. time (UTC)
Max El. Az.
Max El.
End time (UTC)
End Az.